Weather History for Pipestone, MN

Change the Weather History Date:

Saturday, November 17, 2012

  Actual Average Record
Temperature  
Mean Temperature 45 °F -  
Max Temperature 55 °F 38 °F 66 °F (2001)
Min Temperature 35 °F 22 °F 1 °F (2014)
Degree Days  
Heating Degree Days 20    
Moisture  
Dew Point 34 °F    
Average Humidity 67    
Maximum Humidity 87    
Minimum Humidity 47    
Precipitation  
Precipitation 0.00 in - - ()
Sea Level Pressure  
Sea Level Pressure 30.11 in    
Wind  
Wind Speed 16 mph (South)    
Max Wind Speed 28 mph    
Max Gust Speed 34 mph    
Visibility 10 miles    
Events      
Averages and records for this station are not official NWS values.
T = Trace of Precipitation, MM = Missing Value Source: NWS Daily Summary

Daily Weather History Graph

Daily Weather History Graph

Search for Another Location

Airport:

Trip Planner

Search our weather history database for the weather conditions in past years. The results will help you decide how hot, cold, wet, or windy it might be!

Date:

Astronomy

Nov. 17, 2012 Rise Set
Actual Time 7:23 AM CST 4:56 PM CST
Civil Twilight 6:52 AM CST 5:28 PM CST
Nautical Twilight 6:16 AM CST 6:03 PM CST
Astronomical Twilight 5:42 AM CST 6:37 PM CST
Moon 11:08 AM CST (11/17) 9:08 PM CST (11/17)
Length of Visible Light 10h 36m
Length of Day
9h 33m
Waxing Crescent, 20% of the Moon is Illuminated
Nov 17
Waxing Crescent
Nov 20
First Quarter
Nov 28
Full
Dec 6
Last Quarter
Dec 13
New

Hourly Weather History & Observations

Time (CST) Temp. Windchill Dew Point Humidity Pressure Visibility Wind Dir Wind Speed Gust Speed Precip Events Conditions
12:13 AM 37.4 °F 29.3 °F 30.2 °F 75% 30.20 in 10.0 mi South 12.7 mph - N/A   Clear
12:34 AM 37.4 °F 29.8 °F 30.2 °F 75% 30.19 in 10.0 mi SSW 11.5 mph - N/A   Clear
12:53 AM 37.4 °F 28.5 °F 32.0 °F 81% 30.19 in 10.0 mi SSW 15.0 mph - N/A   Clear
1:13 AM 37.4 °F 28.5 °F 32.0 °F 81% 30.18 in 10.0 mi SSW 15.0 mph - N/A   Clear
1:34 AM 37.4 °F 28.5 °F 32.0 °F 81% 30.18 in 10.0 mi SSW 15.0 mph - N/A   Clear
1:53 AM 37.4 °F 28.2 °F 32.0 °F 81% 30.18 in 10.0 mi SSW 16.1 mph - N/A   Clear
2:13 AM 37.4 °F 28.5 °F 32.0 °F 81% 30.18 in 10.0 mi SSW 15.0 mph - N/A   Clear
2:34 AM 37.4 °F 28.5 °F 32.0 °F 81% 30.18 in 10.0 mi SSW 15.0 mph - N/A   Clear
2:53 AM 37.4 °F 28.2 °F 32.0 °F 81% 30.17 in 10.0 mi SSW 16.1 mph - N/A   Clear
3:14 AM 37.4 °F 28.5 °F 32.0 °F 81% 30.17 in 10.0 mi South 15.0 mph - N/A   Clear
3:33 AM 37.4 °F 28.9 °F 32.0 °F 81% 30.16 in 10.0 mi South 13.8 mph - N/A   Clear
3:53 AM 37.4 °F 28.9 °F 32.0 °F 81% 30.16 in 10.0 mi South 13.8 mph - N/A   Clear
4:14 AM 37.4 °F 29.3 °F 32.0 °F 81% 30.15 in 10.0 mi South 12.7 mph - N/A   Clear
4:33 AM 37.4 °F 29.3 °F 32.0 °F 81% 30.15 in 10.0 mi South 12.7 mph - N/A   Clear
4:53 AM 37.4 °F 28.9 °F 32.0 °F 81% 30.15 in 10.0 mi South 13.8 mph - N/A   Clear
5:13 AM 35.6 °F 26.2 °F 32.0 °F 87% 30.15 in 10.0 mi South 15.0 mph - N/A   Clear
5:33 AM 35.6 °F 26.2 °F 32.0 °F 87% 30.15 in 7.0 mi South 15.0 mph - N/A   Clear
5:53 AM 35.6 °F 26.2 °F 32.0 °F 87% 30.14 in 10.0 mi South 15.0 mph - N/A   Clear
6:13 AM 37.4 °F 28.2 °F 32.0 °F 81% 30.14 in 10.0 mi South 16.1 mph - N/A   Clear
6:33 AM 37.4 °F 28.2 °F 32.0 °F 81% 30.14 in 10.0 mi South 16.1 mph - N/A   Clear
7:13 AM 37.4 °F 27.8 °F 32.0 °F 81% 30.14 in 10.0 mi South 17.3 mph - N/A   Clear
7:33 AM 37.4 °F 28.2 °F 32.0 °F 81% 30.14 in 10.0 mi South 16.1 mph - N/A   Clear
7:53 AM 37.4 °F 28.2 °F 32.0 °F 81% 30.14 in 10.0 mi South 16.1 mph - N/A   Clear
8:13 AM 37.4 °F 28.9 °F 33.8 °F 87% 30.15 in 10.0 mi South 13.8 mph - N/A   Clear
8:33 AM 39.2 °F 30.8 °F 33.8 °F 81% 30.14 in 10.0 mi South 15.0 mph 18.4 mph N/A   Clear
8:53 AM 41.0 °F 32.5 °F 33.8 °F 76% 30.14 in 10.0 mi South 17.3 mph 23.0 mph N/A   Clear
9:13 AM 42.8 °F 34.8 °F 33.8 °F 70% 30.15 in 10.0 mi SSW 17.3 mph 24.2 mph N/A   Clear
9:33 AM 42.8 °F 34.5 °F 33.8 °F 70% 30.14 in 10.0 mi SSW 18.4 mph - N/A   Clear
9:54 AM 44.6 °F 36.9 °F 33.8 °F 66% 30.14 in 10.0 mi SSW 18.4 mph 24.2 mph N/A   Clear
10:13 AM 44.6 °F 36.4 °F 33.8 °F 66% 30.14 in 10.0 mi South 20.7 mph 27.6 mph N/A   Clear
10:33 AM 46.4 °F 38.7 °F 33.8 °F 62% 30.14 in 10.0 mi South 20.7 mph 27.6 mph N/A   Clear
10:53 AM 48.2 °F - 35.6 °F 62% 30.14 in 10.0 mi SSW 21.9 mph 31.1 mph N/A   Clear
11:13 AM 48.2 °F - 33.8 °F 58% 30.13 in 10.0 mi SSW 23.0 mph 29.9 mph N/A   Clear
11:33 AM 51.8 °F - 35.6 °F 54% 30.11 in 10.0 mi SSW 21.9 mph 26.5 mph N/A   Clear
11:53 AM 51.8 °F - 35.6 °F 54% 30.11 in 10.0 mi SSW 24.2 mph 28.8 mph N/A   Clear
12:13 PM 53.6 °F - 35.6 °F 51% 30.10 in 10.0 mi SSW 20.7 mph 29.9 mph N/A   Clear
12:33 PM 53.6 °F - 35.6 °F 51% 30.09 in 10.0 mi SSW 24.2 mph 29.9 mph N/A   Clear
12:53 PM 55.4 °F - 35.6 °F 47% 30.08 in 10.0 mi SSW 24.2 mph 29.9 mph N/A   Clear
1:13 PM 55.4 °F - 35.6 °F 47% 30.07 in 10.0 mi SSW 23.0 mph 32.2 mph N/A   Clear
1:33 PM 55.4 °F - 35.6 °F 47% 30.07 in 10.0 mi SSW 24.2 mph 33.4 mph N/A   Clear
1:54 PM 53.6 °F - 35.6 °F 51% 30.06 in 10.0 mi South 27.6 mph 31.1 mph N/A   Clear
2:13 PM 55.4 °F - 35.6 °F 47% 30.06 in 10.0 mi South 26.5 mph 31.1 mph N/A   Clear
2:34 PM 55.4 °F - 35.6 °F 47% 30.05 in 10.0 mi South 25.3 mph 31.1 mph N/A   Clear
2:53 PM 53.6 °F - 35.6 °F 51% 30.05 in 10.0 mi South 24.2 mph 34.5 mph N/A   Clear
3:13 PM 53.6 °F - 35.6 °F 51% 30.05 in 10.0 mi South 21.9 mph 27.6 mph N/A   Clear
3:33 PM 55.4 °F - 35.6 °F 47% 30.04 in 10.0 mi South 26.5 mph 31.1 mph N/A   Clear
3:53 PM 55.4 °F - 35.6 °F 47% 30.05 in 10.0 mi South 21.9 mph 29.9 mph N/A   Clear
4:13 PM 53.6 °F - 35.6 °F 51% 30.06 in 10.0 mi SSW 19.6 mph 26.5 mph N/A   Clear
4:33 PM 53.6 °F - 35.6 °F 51% 30.06 in 10.0 mi South 17.3 mph - N/A   Clear
4:53 PM 51.8 °F - 35.6 °F 54% 30.06 in 10.0 mi South 16.1 mph - N/A   Clear
5:13 PM 51.8 °F - 35.6 °F 54% 30.06 in 10.0 mi South 13.8 mph - N/A   Clear
5:33 PM 50.0 °F - 35.6 °F 58% 30.06 in 10.0 mi South 16.1 mph - N/A   Clear
5:53 PM 50.0 °F - 35.6 °F 58% 30.06 in 10.0 mi South 17.3 mph - N/A   Clear
6:13 PM 48.2 °F - 35.6 °F 62% 30.06 in 10.0 mi South 15.0 mph - N/A   Clear
6:33 PM 48.2 °F - 35.6 °F 62% 30.06 in 10.0 mi South 12.7 mph - N/A   Clear
6:53 PM 46.4 °F 40.1 °F 35.6 °F 66% 30.06 in 10.0 mi South 15.0 mph - N/A   Clear
7:13 PM 48.2 °F - 35.6 °F 62% 30.06 in 10.0 mi South 16.1 mph - N/A   Clear
7:33 PM 48.2 °F - 35.6 °F 62% 30.06 in 10.0 mi South 17.3 mph - N/A   Clear
7:53 PM 46.4 °F 39.8 °F 35.6 °F 66% 30.06 in 10.0 mi South 16.1 mph 21.9 mph N/A   Clear
8:13 PM 46.4 °F 39.2 °F 35.6 °F 66% 30.06 in 10.0 mi South 18.4 mph 21.9 mph N/A   Clear
8:33 PM 46.4 °F 39.2 °F 35.6 °F 66% 30.06 in 10.0 mi South 18.4 mph - N/A   Clear
8:53 PM 46.4 °F 39.2 °F 35.6 °F 66% 30.06 in 10.0 mi South 18.4 mph 23.0 mph N/A   Clear
9:13 PM 46.4 °F 39.5 °F 33.8 °F 62% 30.06 in 10.0 mi South 17.3 mph - N/A   Clear
9:33 PM 46.4 °F 39.5 °F 33.8 °F 62% 30.05 in 10.0 mi South 17.3 mph - N/A   Clear
9:53 PM 44.6 °F 36.9 °F 33.8 °F 66% 30.05 in 10.0 mi South 18.4 mph - N/A   Clear
10:13 PM 46.4 °F 39.5 °F 33.8 °F 62% 30.05 in 10.0 mi South 17.3 mph 26.5 mph N/A   Clear
10:33 PM 44.6 °F 37.2 °F 33.8 °F 66% 30.05 in 10.0 mi South 17.3 mph - N/A   Clear
10:53 PM 44.6 °F 37.2 °F 33.8 °F 66% 30.05 in 10.0 mi South 17.3 mph - N/A   Clear
11:13 PM 44.6 °F 37.2 °F 33.8 °F 66% 30.05 in 10.0 mi South 17.3 mph 24.2 mph N/A   Clear
11:33 PM 42.8 °F 35.1 °F 33.8 °F 70% 30.05 in 10.0 mi South 16.1 mph - N/A   Clear
11:54 PM 42.8 °F 34.8 °F 33.8 °F 70% 30.04 in 10.0 mi South 17.3 mph - N/A   Clear